| time (UTC) | temp C | wind direction | speed KPH | gust KPH | rain 1hr cm | rain 24hr cm | rain mn cm | humidity % | barometer mb |
| 20260504050400 | 23 | 35 | 9.7 | 20.9 | 0.00 | 0.08 | 0.00 | 69 | 1015.8 |
| 20260504045346 | 23 | 32 | 9.7 | 20.9 | 0.00 | 0.08 | 0.00 | 69 | 1015.7 |
| 20260504044404 | 23 | 86 | 8.0 | 20.9 | 0.00 | 0.08 | 0.00 | 69 | 1015.9 |
| 20260504043402 | 23 | 34 | 8.0 | 19.3 | 0.00 | 0.08 | 0.00 | 69 | 1016.1 |
| 20260504042348 | 23 | 71 | 8.0 | 19.3 | 0.00 | 0.08 | 0.00 | 69 | 1016.0 |
| 20260504041411 | 23 | 64 | 8.0 | 19.3 | 0.00 | 0.08 | 0.00 | 69 | 1016.1 |
| 20260504040406 | 23 | 61 | 9.7 | 20.9 | 0.00 | 0.08 | 0.00 | 69 | 1016.0 |
| 20260504035346 | 23 | 40 | 9.7 | 20.9 | 0.00 | 0.08 | 0.08 | 70 | 1016.3 |
| 20260504034401 | 23 | 56 | 9.7 | 22.5 | 0.00 | 0.08 | 0.08 | 69 | 1016.4 |
| 20260504033401 | 23 | 49 | 11.3 | 22.5 | 0.00 | 0.08 | 0.08 | 69 | 1016.5 |
| 20260504032422 | 23 | 109 | 9.7 | 20.9 | 0.00 | 0.08 | 0.08 | 69 | 1016.4 |
| 20260504031400 | 23 | 18 | 11.3 | 25.7 | 0.00 | 0.08 | 0.08 | 69 | 1016.4 |
| 20260504025251 | 23 | 94 | 9.7 | 24.1 | 0.00 | 0.08 | 0.08 | 69 | 1016.4 |
| 20260504024302 | 23 | 81 | 11.3 | 22.5 | 0.00 | 0.08 | 0.08 | 70 | 1016.3 |
| 20260504023259 | 23 | 59 | 11.3 | 22.5 | 0.00 | 0.08 | 0.08 | 70 | 1016.2 |
| 20260504022318 | 23 | 35 | 9.7 | 22.5 | 0.00 | 0.08 | 0.08 | 69 | 1016.2 |
| 20260504021322 | 23 | 68 | 11.3 | 22.5 | 0.00 | 0.08 | 0.08 | 69 | 1016.4 |
| 20260504020327 | 23 | 98 | 9.7 | 29.0 | 0.00 | 0.08 | 0.08 | 69 | 1016.3 |
| 20260504015251 | 23 | 41 | 12.9 | 29.0 | 0.00 | 0.08 | 0.08 | 69 | 1016.2 |
| 20260504014255 | 23 | 73 | 11.3 | 25.7 | 0.00 | 0.08 | 0.08 | 68 | 1016.1 |
| 20260504013241 | 23 | 38 | 11.3 | 25.7 | 0.00 | 0.08 | 0.08 | 68 | 1016.0 |
| 20260504012301 | 23 | 82 | 8.0 | 24.1 | 0.00 | 0.08 | 0.08 | 69 | 1015.9 |
| 20260504011313 | 23 | 74 | 9.7 | 22.5 | 0.00 | 0.08 | 0.08 | 69 | 1015.9 |
| 20260504005150 | 23 | 74 | 11.3 | 29.0 | 0.00 | 0.08 | 0.08 | 70 | 1015.8 |
| 20260504004136 | 23 | 80 | 12.9 | 29.0 | 0.00 | 0.08 | 0.08 | 70 | 1015.7 |
| 20260504002000 | 23 | 71 | 11.3 | 22.5 | 0.00 | 0.08 | 0.08 | 70 | 1015.6 |
| 20260503234723 | 23 | 55 | 9.7 | 20.9 | 0.00 | 0.08 | 0.08 | 71 | 1015.4 |
| 20260503232542 | 23 | 70 | 12.9 | 24.1 | 0.00 | 0.08 | 0.08 | 70 | 1015.3 |
| 20260503230416 | 23 | 53 | 12.9 | 27.4 | 0.00 | 0.08 | 0.08 | 71 | 1015.1 |
| 20260503225354 | 23 | 22 | 12.9 | 27.4 | 0.00 | 0.08 | 0.08 | 71 | 1015.1 |
| 20260503222131 | 23 | 49 | 11.3 | 20.9 | 0.00 | 0.08 | 0.08 | 70 | 1015.3 |
| 20260503221058 | 23 | 30 | 9.7 | 24.1 | 0.00 | 0.08 | 0.08 | 69 | 1015.4 |
| 20260503220114 | 23 | 22 | 11.3 | 24.1 | 0.00 | 0.08 | 0.08 | 69 | 1015.3 |
| 20260503215116 | 23 | 69 | 9.7 | 19.3 | 0.00 | 0.08 | 0.08 | 68 | 1015.2 |
| 20260503214107 | 23 | 26 | 9.7 | 22.5 | 0.00 | 0.08 | 0.08 | 68 | 1015.4 |
| 20260503213129 | 24 | 42 | 11.3 | 22.5 | 0.00 | 0.08 | 0.08 | 67 | 1015.2 |
| 20260503212108 | 24 | 51 | 11.3 | 22.5 | 0.00 | 0.08 | 0.08 | 67 | 1015.2 |
| 20260503211125 | 24 | 27 | 11.3 | 24.1 | 0.00 | 0.08 | 0.08 | 69 | 1015.3 |
| 20260503210126 | 24 | 55 | 11.3 | 24.1 | 0.00 | 0.08 | 0.08 | 68 | 1015.3 |
| 20260503205131 | 24 | 46 | 9.7 | 22.5 | 0.00 | 0.08 | 0.08 | 69 | 1015.4 |
| 20260503204113 | 23 | 26 | 12.9 | 25.7 | 0.00 | 0.08 | 0.08 | 69 | 1015.6 |
| 20260503203131 | 23 | 43 | 12.9 | 25.7 | 0.00 | 0.08 | 0.08 | 69 | 1015.6 |
| 20260503200950 | 23 | 32 | 9.7 | 25.7 | 0.00 | 0.08 | 0.08 | 68 | 1015.5 |
| 20260503195942 | 23 | 38 | 9.7 | 24.1 | 0.00 | 0.08 | 0.08 | 70 | 1015.5 |
| 20260503194915 | 23 | 59 | 11.3 | 24.1 | 0.00 | 0.08 | 0.08 | 69 | 1015.5 |
| 20260503193849 | 23 | 45 | 9.7 | 22.5 | 0.00 | 0.08 | 0.08 | 69 | 1015.6 |
| 20260503192815 | 23 | 48 | 9.7 | 19.3 | 0.00 | 0.08 | 0.08 | 69 | 1015.8 |
| 20260503191738 | 23 | 65 | 9.7 | 19.3 | 0.00 | 0.08 | 0.08 | 69 | 1015.9 |
| 20260503190705 | 23 | 32 | 9.7 | 20.9 | 0.00 | 0.08 | 0.08 | 69 | 1016.2 |
| 20260503185711 | 23 | 27 | 11.3 | 22.5 | 0.00 | 0.08 | 0.08 | 70 | 1016.3 |
| 20260503183534 | 23 | 18 | 14.5 | 24.1 | 0.00 | 0.08 | 0.08 | 70 | 1016.7 |
| 20260503182529 | 23 | 44 | 11.3 | 22.5 | 0.00 | 0.08 | 0.08 | 70 | 1016.9 |
| 20260503181459 | 23 | 31 | 9.7 | 20.9 | 0.00 | 0.08 | 0.08 | 69 | 1016.8 |
| 20260503180444 | 23 | 65 | 9.7 | 20.9 | 0.00 | 0.08 | 0.08 | 70 | 1017.1 |
| 20260503173217 | 23 | 355 | 11.3 | 27.4 | 0.00 | 0.08 | 0.08 | 69 | 1017.1 |
| 20260503172212 | 23 | 17 | 11.3 | 27.4 | 0.00 | 0.08 | 0.08 | 70 | 1017.0 |
| 20260503171216 | 23 | 49 | 11.3 | 20.9 | 0.00 | 0.08 | 0.08 | 69 | 1016.9 |
| 20260503170220 | 23 | 46 | 12.9 | 22.5 | 0.00 | 0.08 | 0.08 | 69 | 1017.0 |
| 20260503130629 | 22 | 31 | 17.7 | 30.6 | 0.00 | 0.05 | 0.05 | 73 | 1015.8 |
| 20260503110423 | 20 | 41 | 12.9 | 22.5 | 0.00 | 0.05 | 0.05 | 84 | 1014.9 |
| 20260503090233 | 21 | 330 | 11.3 | 17.7 | 0.20 | 0.05 | 0.05 | 83 | 1014.0 |
| 20260503072812 | 21 | 344 | 14.5 | 24.1 | 0.00 | 0.00 | 0.00 | 84 | 1013.5 |
| 20260503071822 | 21 | 343 | 16.1 | 25.7 | 0.00 | 0.00 | 0.00 | 84 | 1013.3 |
| 20260503070835 | 21 | 342 | 14.5 | 27.4 | 0.00 | 0.00 | 0.00 | 84 | 1013.4 |